Weather History for Poplar Bluff, MO

Change the Weather History Date:

Friday, July 4, 2014

  Actual Average Record
Temperature  
Mean Temperature 70 °F -  
Max Temperature 82 °F 90 °F 102 °F (1925)
Min Temperature 60 °F 68 °F 52 °F (1968)
Cooling Degree Days 6    
Growing Degree Days 20 (Base 50)    
Moisture  
Dew Point 58 °F    
Average Humidity 67    
Maximum Humidity 90    
Minimum Humidity 42    
Precipitation  
Precipitation 0.00 in - - ()
Sea Level Pressure  
Sea Level Pressure 30.24 in    
Wind  
Wind Speed 3 mph (NNE)    
Max Wind Speed 8 mph    
Max Gust Speed -    
Visibility 9 miles    
Events      
Averages and records for this station are not official NWS values.
T = Trace of Precipitation, MM = Missing Value Source: NWS Daily Summary

Daily Weather History Graph

Daily Weather History Graph

Search for Another Location

Airport:

Trip Planner

Search our weather history database for the weather conditions in past years. The results will help you decide how hot, cold, wet, or windy it might be!

Date:

Astronomy

Jul. 04, 2014 Rise Set
Actual Time 5:47 AM CDT 8:23 PM CDT
Civil Twilight 5:17 AM CDT 8:54 PM CDT
Nautical Twilight 4:39 AM CDT 9:32 PM CDT
Astronomical Twilight 3:56 AM CDT 10:14 PM CDT
Moon 12:32 PM CDT (7/4) No Moon Set
Length of Visible Light 15h 37m
Length of Day
14h 36m
Waxing Crescent, 42% of the Moon is Illuminated
Jul 4
Waxing Crescent
Jul 5
First Quarter
Jul 12
Full
Jul 18
Last Quarter
Jul 26
New

Hourly Weather History & Observations

Time (CDT) Temp. Heat Index Dew Point Humidity Pressure Visibility Wind Dir Wind Speed Gust Speed Precip Events Conditions
12:53 AM 63.0 °F - 59.0 °F 87% 30.22 in 8.0 mi Calm Calm - N/A   Scattered Clouds
1:53 AM 62.1 °F - 59.0 °F 90% 30.22 in 7.0 mi Calm Calm - N/A   Clear
2:53 AM 61.0 °F - 57.9 °F 90% 30.22 in 9.0 mi Calm Calm - N/A   Clear
3:53 AM 61.0 °F - 57.0 °F 87% 30.22 in 10.0 mi NW 4.6 mph - N/A   Clear
4:53 AM 60.1 °F - 55.9 °F 86% 30.23 in 9.0 mi NNW 4.6 mph - N/A   Clear
5:53 AM 60.1 °F - 55.9 °F 86% 30.25 in 7.0 mi NNW 4.6 mph - N/A   Clear
6:53 AM 62.1 °F - 57.9 °F 86% 30.25 in 8.0 mi Calm Calm - N/A   Clear
7:53 AM 66.0 °F - 59.0 °F 78% 30.26 in 10.0 mi North 5.8 mph - N/A   Clear
8:53 AM 72.0 °F - 61.0 °F 68% 30.27 in 10.0 mi North 4.6 mph - N/A   Clear
9:53 AM 75.9 °F - 59.0 °F 56% 30.28 in 10.0 mi NE 3.5 mph - N/A   Clear
10:53 AM 78.1 °F - 57.0 °F 48% 30.29 in 10.0 mi NNE 6.9 mph - N/A   Clear
11:53 AM 79.0 °F - 55.9 °F 45% 30.28 in 10.0 mi Variable 4.6 mph - N/A   Mostly Cloudy
12:53 PM 80.1 °F 80.1 °F 55.0 °F 42% 30.27 in 10.0 mi NNE 8.1 mph - N/A   Clear
1:53 PM 79.0 °F - 57.0 °F 47% 30.25 in 10.0 mi ENE 6.9 mph - N/A   Partly Cloudy
2:53 PM 81.0 °F 80.8 °F 55.9 °F 42% 30.24 in 10.0 mi NNE 4.6 mph - N/A   Scattered Clouds
3:53 PM 79.0 °F - 57.0 °F 47% 30.24 in 10.0 mi ENE 3.5 mph - N/A   Scattered Clouds
4:53 PM 79.0 °F - 57.9 °F 48% 30.22 in 10.0 mi Calm Calm - N/A   Partly Cloudy
5:53 PM 81.0 °F 80.8 °F 55.9 °F 42% 30.22 in 10.0 mi North 3.5 mph - N/A   Clear
6:53 PM 79.0 °F - 59.0 °F 50% 30.22 in 10.0 mi ENE 3.5 mph - N/A   Partly Cloudy
7:53 PM 75.0 °F - 60.1 °F 60% 30.21 in 10.0 mi ENE 3.5 mph - N/A   Clear
8:53 PM 70.0 °F - 64.0 °F 81% 30.21 in 10.0 mi North 3.5 mph - N/A   Clear
9:53 PM 68.0 °F - 63.0 °F 84% 30.22 in 10.0 mi Calm Calm - N/A   Clear
10:53 PM 66.9 °F - 61.0 °F 81% 30.22 in 10.0 mi NE 3.5 mph - N/A   Clear
11:53 PM 66.0 °F - 61.0 °F 84% 30.23 in 8.0 mi North 3.5 mph - N/A   Clear